{"data":{"norad_id":48274,"epoch":"2026-05-25T03:02:10.928832Z","epoch_age_seconds":74152,"freshness":"FRESH","line1":"1 48274U 21035A   26145.12651538  .00014225  00000+0  17567-3 0  9997","line2":"2 48274  41.4679 102.2354 0011060 276.8418  83.1162 15.59799573289560","mean_motion":15.59799573,"eccentricity":0.001106,"inclination_deg":41.4679,"raan_deg":102.2354,"arg_perigee_deg":276.8418,"mean_anomaly_deg":83.1162,"bstar":0.00017567,"rev_number":28956,"period_min":92.319553417393,"perigee_km":380.75304116933,"apogee_km":395.72025968408,"semimajor_km":6766.3736504267,"source":"CELESTRAK","updated_at":"2026-05-25T13:38:08.443922Z"}}